Location: Ferchesar
(52.6477°N, 12.4298°E)
Time: 11:31:53
(UTC+02:00)

Tianhe-1 - Visible Passes

Search period start: 15 May 2021 00:00
Search period end: 25 May 2021 00:00
Orbit: 359 x 385 km, 41.5° (Epoch: 14 May)

Date Brightness Start Highest point End Pass type
(mag) Time Alt. Az. Time Alt. Az. Time Alt. Az.
16 May 3.4 22:24:46 10° S 22:25:01 10° S 22:25:01 10° S visible
18 May 3.3 21:53:29 10° SSW 21:54:29 11° S 21:55:28 10° SSE visible
19 May 3.4 22:26:06 10° SSW 22:26:51 11° S 22:27:23 10° S visible
